This demonstration page uses our WeatherBlox Daily Observations layout. Learn more.

Left ArrowRight Arrow

38.88101, -77.10428

Hourly Observations for September 15, 2021

Temp ( °F °C ) Dew Point ( °F °C ) Humidity (%) Winds ( mph kmh ) Pressure ( in mb ) Visibility ( mi km ) Precip ( " mm )
12:52 am 00:52 Partly Cloudy 76 24.4 72 22.2 88 88 S 7 11 29.98 1015 10 16 N/A
1:52 am 01:52 Partly Cloudy 76 24.4 71 21.7 85 85 S 8 13 29.97 1015 10 16 N/A
2:52 am 02:52 Partly Cloudy 76 24.4 69 20.6 79 79 S 9 15 29.97 1015 10 16 N/A
3:52 am 03:52 Partly Cloudy 75 23.9 69 20.6 82 82 S 7 11 29.96 1015 10 16 N/A
4:52 am 04:52 Mostly Cloudy 74 23.3 67 19.4 79 79 S 10 17 29.96 1015 10 16 N/A
5:52 am 05:52 Mostly Cloudy 73 22.8 67 19.4 81 81 S 8 13 29.96 1015 10 16 N/A
6:52 am 06:52 Mostly Cloudy 73 22.8 66 18.9 79 79 S 7 11 29.96 1015 10 16 N/A
7:52 am 07:52 Mostly Cloudy 73 22.8 66 18.9 79 79 SSW 6 9 29.98 1015 10 16 N/A
8:52 am 08:52 Partly Cloudy 76 24.4 68 20 77 77 S 10 17 29.97 1015 10 16 N/A
9:52 am 09:52 Partly Cloudy 78 25.6 68 20 71 71 S 10 17 29.98 1015 10 16 N/A
10:52 am 10:52 Mostly Cloudy 81 27.2 69 20.6 67 67 S 12 19 29.98 1015 10 16 N/A
11:52 am 11:52 Mostly Cloudy 85 29.4 67 19.4 55 55 S 14 22 29.98 1015 10 16 N/A
12:52 pm 12:52 Mostly Cloudy 87 30.6 67 19.4 51 51 SSW 16 26 29.97 1015 10 16 N/A
1:52 pm 13:52 Mostly Cloudy 89 31.7 65 18.3 45 45 SSW 18 30 29.95 1014 10 16 N/A
2:52 pm 14:52 Mostly Cloudy 90 32.2 63 17.2 41 41 SSW 13 20 29.93 1013 10 16 N/A
3:52 pm 15:52 Mostly Cloudy 87 30.6 63 17.2 45 45 S 16 26 29.92 1013 10 16 N/A
4:52 pm 16:52 Mostly Cloudy 86 30 68 20 55 55 S 15 24 29.92 1013 10 16 N/A
5:52 pm 17:52 Mostly Cloudy 85 29.4 69 20.6 59 59 S 13 20 29.92 1013 10 16 N/A
6:52 pm 18:52 Mostly Cloudy 82 27.8 69 20.6 65 65 S 8 13 29.93 1014 10 16 N/A
7:52 pm 19:52 Mostly Cloudy 81 27.2 70 21.1 69 69 S 7 11 29.96 1015 10 16 N/A
8:52 pm 20:52 Mostly Cloudy 80 26.7 71 21.7 74 74 S 7 11 29.98 1015 10 16 N/A
9:52 pm 21:52 Mostly Cloudy 81 27.2 70 21.1 69 69 NW 6 9 30.02 1017 10 16 N/A
10:52 pm 22:52 Cloudy 80 26.7 67 19.4 64 64 NNW 13 20 30.03 1017 10 16 N/A
11:52 pm 23:52 Cloudy 78 25.6 65 18.3 64 64 N 5 7 30.05 1018 10 16 N/A

Powered by AerisWeather